DMSP 5D-2 F13 DEB, 40673

Orbit data source: Space-Track

DMSP 5D-2 F13 DEB, 40673 is space debris in SSO originally from a launch on Fri, 24 Mar 1995 UTC launched from the Air Force Western Test Range (AFWTR). Debris objects in space refer to the collection of defunct objects orbiting the Earth. Examples of debris include non-operational satellites, rocket bodies, and fragments generated from explosions, collisions, or faulty payload assembly.

Loading next visibility...
Identifier
40673, 1995-015FM
Orbit
SSO
Country
Flag of USUS
Related business
Manufacturer
Unknown
Mission
Spacecraft
Bus & Motor
Unknown
Mass
Unknown
Launch date (UTC)
1995-03-24 (31 years ago)
Launch vehicle
Unknown
Launch site
Air Force Western Test Range (AFWTR)
Object type
Payload
Rocket body
Debris
Shape & HBR
Unknown shape, 0.1 m
Radar Cross Section
Small (<0.1 m²)

Expand to show TLE details & history
Last TLE update: 2 days ago

TLE from 2 days ago
0 DMSP 5D-2 F13 DEB
1 40673U 95015FM  25311.26479808  .00000743  00000-0  35242-3 0  9999
2 40673  98.7072 325.2029 0022493 311.4129  48.5115 14.22421569549186
Epoch: 2025-11-07T06:21Z
TLE epoch observation values (Epoch: 2025-11-07T06:21:18.554Z)
Latitude
-0.00005°
Longitude
-176.83565°
Altitude
809.389 km
Speed
7.454 km/s
True Right ascension
21h 40m 48s
True Declination
0° 00' 00"
Sunlit
Object was in daylight at epoch
Visualization orbit readout
Latitude
Unknown
Longitude
Unknown
Altitude
Unknown
Speed
Unknown
Apparent Right ascension
Unknown
Apparent Declination
Unknown
Sunlit
N/A
Visualization observer readout
Local Sidereal Time
21:33:07
Azimuth
Unknown
Elevation
Unknown
Doppler factor
Unknown
Orbital elements
Apogee altitude
830.508 km
Perigee altitude
798.152 km
Semi-major axis
7,192.467 km
Eccentricity
0.00225
Inclination
98.7072°
RAAN
325.2029°
Arg. of periapsis
311.4129°
True anomaly
48.70494°
Mean anomaly
48.5115°
Eccentric anomaly
48.60818°
Mean motion
3.55817 °/min
Orbital period
101.18 mins
BSTAR
0.00035242
Loading maneuver chart data...
Computing Atmospheric mass density...

Documentation

Showing up to 5 results
|